Location: Augsburg
(48.3836°N, 10.8929°E)
Time: 22:36:18
(UTC+02:00)

ISS - Visible Passes

Search period start: 26 July 2017 00:00
Search period end: 05 August 2017 00:00
Orbit: 400 x 408 km, 51.6° (Epoch: 27 July)

Date Brightness Start Highest point End Pass type
(mag) Time Alt. Az. Time Alt. Az. Time Alt. Az.
26 Jul -2.7 00:52:02 10° WNW 00:55:11 45° N 00:56:42 25° ENE visible
26 Jul -1.4 02:28:35 10° WNW 02:29:15 15° WNW 02:29:15 15° WNW visible
26 Jul -3.9 22:22:51 10° WSW 22:26:07 87° SSE 22:29:23 10° ENE visible
26 Jul -2.7 23:59:37 10° WNW 00:02:47 45° N 00:05:20 14° ENE visible
27 Jul -2.1 01:36:18 10° WNW 01:37:56 27° WNW 01:37:56 27° WNW visible
27 Jul -2.9 23:07:11 10° W 23:10:22 50° N 23:13:33 10° ENE visible
28 Jul -3.0 00:43:57 10° WNW 00:46:58 51° N 00:46:58 51° N visible
28 Jul -3.3 22:14:44 10° W 22:17:58 61° NNW 22:21:12 10° ENE visible
28 Jul -2.8 23:51:34 10° WNW 23:54:44 46° N 23:56:07 27° ENE visible
29 Jul -1.3 01:28:07 10° WNW 01:28:45 15° WNW 01:28:45 15° WNW visible
29 Jul -2.7 22:59:09 10° WNW 23:02:17 44° N 23:05:21 11° ENE visible
30 Jul -2.6 00:35:46 10° WNW 00:37:58 39° WNW 00:37:58 39° WNW visible
30 Jul -2.8 22:06:40 10° W 22:09:51 48° N 22:13:01 10° ENE visible
30 Jul -3.3 23:43:24 10° WNW 23:46:37 56° NNE 23:47:12 47° ENE visible
31 Jul -2.9 22:51:00 10° WNW 22:54:10 47° N 22:56:29 17° ENE visible
01 Aug -2.0 00:27:32 10° WNW 00:29:05 25° WNW 00:29:05 25° WNW visible
01 Aug -2.8 21:58:33 10° WNW 22:01:42 44° N 22:04:51 10° ENE visible
01 Aug -3.9 23:35:08 10° WNW 23:38:22 82° N 23:38:22 82° N visible
02 Aug -3.5 22:42:44 10° WNW 22:45:58 61° NNE 22:47:40 25° E visible
03 Aug -1.5 00:19:20 10° WNW 00:20:18 17° W 00:20:18 17° W visible
03 Aug -3.1 21:50:18 10° WNW 21:53:30 50° N 21:56:41 10° E visible
03 Aug -3.4 23:26:50 10° WNW 23:29:36 51° WSW 23:29:36 51° WSW visible
04 Aug -3.9 22:34:23 10° WNW 22:37:39 87° SSW 22:38:56 34° ESE visible
